STARLINK-30768, 58120

Orbit data source: Space-Track

STARLINK-30768, 58120 is a payload satellite owned by SpaceX/Seattle (US) in LEO that was launched on Sun, 22 Oct 2023 UTC via an FALCON 9 launch vehicle from the Air Force Eastern Test Range (AFETR). Payload-class satellites include a variety of spacecraft equipped with specific instruments for various scientific and technological missions. These include communications satellites like Starlink; space stations such as the ISS; scientific satellites like the Hubble; Earth observation satellites from companies like Planet Labs, Umbra, and HawkEye 360; GPS; miniature CubeSats for education and research; and military/defense satellites.

Loading next visibility...
Identifier
58120, 2023-162C
Orbit
LEO
Country
Flag of USUS
Related business
Manufacturer
SpaceX/Seattle
Mission
Operational Commercial Communications
Bus & Motor
STARLINK V2M, Unknown motor
Mass
730 kg wet, ~700 kg dry
Launch date (UTC)
2023-10-22 (2 years ago)
Launch vehicle
FALCON 9
Launch site
Air Force Eastern Test Range (AFETR)
Object type
Payload
Rocket body
Debris
Shape & HBR
Box + 2 Pan, 17.7 m
Radar Cross Section
33.884 m², Large (>1 m²)

Expand to show TLE details & history
Last TLE update: 6 hours ago

TLE from 6 hours ago
0 STARLINK-30768
1 58120U 23162C   25347.02796306  .00000257  00000-0  34098-4 0  9996
2 58120  43.0006 244.0093 0001008 268.6203  91.4523 15.02530929119268
Epoch: 2025-12-13T00:40Z
TLE epoch observation values (Epoch: 2025-12-13T00:40:16.008Z)
Latitude
-0.00007°
Longitude
151.9814°
Altitude
558.891 km
Speed
7.584 km/s
True Right ascension
16h 16m 02s
True Declination
0° 00' 00"
Sunlit
Object was in daylight at epoch
Visualization orbit readout
Latitude
Unknown
Longitude
Unknown
Altitude
Unknown
Speed
Unknown
Apparent Right ascension
Unknown
Apparent Declination
Unknown
Sunlit
N/A
Visualization observer readout
Local Sidereal Time
05:23:35
Azimuth
Unknown
Elevation
Unknown
Doppler factor
Unknown
Orbital elements
Apogee altitude
561.718 km
Perigee altitude
560.32 km
Semi-major axis
6,939.156 km
Eccentricity
0.0001
Inclination
43.0006°
RAAN
244.0093°
Arg. of periapsis
268.6203°
True anomaly
91.46385°
Mean anomaly
91.4523°
Eccentric anomaly
91.45807°
Mean motion
3.75477 °/min
Orbital period
95.88 mins
BSTAR
0.000034098
Loading maneuver chart data...
Computing Atmospheric mass density...
Loading historical data...
Loading historical data...
Loading historical data...
Loading historical data...
Loading historical data...
Loading historical data...
Loading historical data...

Documentation

Showing up to 5 results
|